| time (UTC) | temp C | wind direction | speed KPH | gust KPH | rain 1hr cm | rain 24hr cm | rain mn cm | humidity % | barometer mb |
| 20260903174533 | 17 | 202 | 0.0 | 8.0 | 0.00 | 0.05 | 0.00 | 64 | 1009.1 |
| 20260903173032 | 17 | 70 | 0.0 | 11.3 | 0.00 | 0.05 | 0.00 | 64 | 1008.9 |
| 20260903171530 | 17 | 195 | 1.6 | 16.1 | 0.00 | 0.05 | 0.00 | 62 | 1008.9 |
| 20260903170027 | 16 | 205 | 4.8 | 11.3 | 0.00 | 0.05 | 0.00 | 66 | 1008.8 |
| 20260903164526 | 16 | 162 | 6.4 | 14.5 | 0.00 | 0.05 | 0.00 | 66 | 1008.7 |
| 20260903163030 | 16 | 175 | 4.8 | 17.7 | 0.00 | 0.05 | 0.00 | 67 | 1008.7 |
| 20260903161522 | 16 | 243 | 3.2 | 9.7 | 0.00 | 0.05 | 0.00 | 67 | 1008.7 |
| 20260903160022 | 16 | 360 | 0.0 | 3.2 | 0.00 | 0.05 | 0.00 | 69 | 1008.6 |
| 20260903154516 | 15 | 190 | 1.6 | 6.4 | 0.00 | 0.05 | 0.00 | 69 | 1008.5 |
| 20260903153014 | 15 | 165 | 0.0 | 9.7 | 0.00 | 0.05 | 0.00 | 69 | 1008.6 |
| 20260903151514 | 15 | 173 | 0.0 | 4.8 | 0.00 | 0.05 | 0.00 | 70 | 1008.4 |
| 20260903150013 | 15 | 206 | 0.0 | 6.4 | 0.00 | 0.05 | 0.00 | 70 | 1008.3 |
| 20260903144509 | 15 | 186 | 0.0 | 12.9 | 0.00 | 0.05 | 0.00 | 70 | 1008.2 |
| 20260903143008 | 15 | 180 | 0.0 | 3.2 | 0.00 | 0.05 | 0.00 | 72 | 1008.1 |
| 20260903141509 | 15 | 207 | 0.0 | 14.5 | 0.00 | 0.05 | 0.00 | 72 | 1008.1 |
| 20260903140005 | 14 | 139 | 1.6 | 6.4 | 0.00 | 0.05 | 0.00 | 73 | 1008.0 |
| 20260903134600 | 13 | 198 | 0.0 | 3.2 | 0.00 | 0.05 | 0.00 | 73 | 1007.8 |
| 20260903133110 | 14 | 192 | 0.0 | 1.6 | 0.00 | 0.05 | 0.00 | 73 | 1007.6 |
| 20260903131609 | 14 | 192 | 0.0 | 1.6 | 0.00 | 0.05 | 0.00 | 73 | 1007.6 |
| 20260903130114 | 13 | 114 | 0.0 | 3.2 | 0.00 | 0.05 | 0.00 | 73 | 1007.4 |
| 20260903124556 | 13 | 114 | 0.0 | 3.2 | 0.00 | 0.05 | 0.00 | 73 | 1007.2 |
| 20260903123054 | 14 | 238 | 0.0 | 3.2 | 0.00 | 0.05 | 0.00 | 72 | 1007.3 |
| 20260903121552 | 14 | 238 | 0.0 | 11.3 | 0.00 | 0.05 | 0.00 | 71 | 1007.2 |
| 20260903120051 | 14 | 164 | 1.6 | 4.8 | 0.00 | 0.05 | 0.00 | 71 | 1007.3 |
| 20260903114549 | 14 | 153 | 3.2 | 17.7 | 0.00 | 0.05 | 0.00 | 72 | 1007.1 |
| 20260903113047 | 14 | 47 | 0.0 | 1.6 | 0.00 | 0.05 | 0.00 | 71 | 1007.0 |
| 20260903111545 | 15 | 333 | 0.0 | 8.0 | 0.00 | 0.05 | 0.00 | 71 | 1006.8 |
| 20260903110044 | 15 | 337 | 0.0 | 4.8 | 0.00 | 0.05 | 0.00 | 70 | 1006.8 |
| 20260903104542 | 15 | 217 | 3.2 | 17.7 | 0.00 | 0.05 | 0.00 | 71 | 1006.7 |
| 20260903103041 | 15 | 169 | 0.0 | 8.0 | 0.00 | 0.05 | 0.00 | 69 | 1006.5 |
| 20260903101540 | 15 | 177 | 1.6 | 16.1 | 0.00 | 0.05 | 0.00 | 69 | 1006.4 |
| 20260903100039 | 15 | 180 | 3.2 | 12.9 | 0.00 | 0.05 | 0.00 | 70 | 1006.2 |
| 20260903094537 | 15 | 96 | 0.0 | 16.1 | 0.00 | 0.05 | 0.00 | 70 | 1006.3 |
| 20260903093042 | 15 | 102 | 0.0 | 12.9 | 0.00 | 0.05 | 0.00 | 69 | 1006.2 |
| 20260903091538 | 15 | 65 | 1.6 | 14.5 | 0.00 | 0.05 | 0.00 | 69 | 1006.3 |
| 20260903090036 | 15 | 180 | 0.0 | 6.4 | 0.00 | 0.05 | 0.00 | 69 | 1006.2 |
| 20260903084533 | 15 | 140 | 1.6 | 9.7 | 0.00 | 0.05 | 0.00 | 69 | 1006.4 |
| 20260903083043 | 15 | 215 | 1.6 | 8.0 | 0.00 | 0.05 | 0.00 | 70 | 1006.4 |
| 20260903081532 | 15 | 182 | 1.6 | 9.7 | 0.00 | 0.05 | 0.00 | 70 | 1006.3 |
| 20260903080031 | 15 | 109 | 0.0 | 16.1 | 0.00 | 0.05 | 0.00 | 70 | 1006.4 |
| 20260903074528 | 15 | 168 | 1.6 | 12.9 | 0.00 | 0.05 | 0.00 | 71 | 1006.3 |
| 20260903073032 | 15 | 143 | 4.8 | 24.1 | 0.00 | 0.05 | 0.00 | 72 | 1006.1 |
| 20260903071527 | 15 | 191 | 4.8 | 12.9 | 0.00 | 0.05 | 0.00 | 73 | 1005.9 |
| 20260903070022 | 15 | 153 | 3.2 | 16.1 | 0.00 | 0.05 | 0.00 | 73 | 1005.8 |
| 20260903064528 | 15 | 146 | 1.6 | 12.9 | 0.00 | 0.05 | 0.05 | 73 | 1006.0 |
| 20260903063021 | 15 | 181 | 3.2 | 17.7 | 0.00 | 0.05 | 0.05 | 73 | 1005.9 |
| 20260903061524 | 15 | 188 | 3.2 | 17.7 | 0.00 | 0.05 | 0.05 | 73 | 1005.9 |
| 20260903060020 | 15 | 153 | 0.0 | 22.5 | 0.00 | 0.05 | 0.05 | 74 | 1005.8 |
| 20260903054521 | 15 | 123 | 4.8 | 27.4 | 0.00 | 0.05 | 0.05 | 74 | 1005.8 |
| 20260903053018 | 15 | 173 | 6.4 | 22.5 | 0.00 | 0.05 | 0.05 | 75 | 1005.9 |
| 20260903051518 | 15 | 136 | 1.6 | 16.1 | 0.00 | 0.05 | 0.05 | 76 | 1005.7 |
| 20260903050017 | 15 | 184 | 8.0 | 22.5 | 0.00 | 0.05 | 0.05 | 75 | 1005.6 |
| 20260903044514 | 15 | 200 | 6.4 | 19.3 | 0.00 | 0.05 | 0.05 | 75 | 1005.4 |
| 20260903043015 | 15 | 145 | 6.4 | 20.9 | 0.00 | 0.05 | 0.05 | 75 | 1005.1 |
| 20260903041516 | 15 | 79 | 4.8 | 27.4 | 0.00 | 0.05 | 0.05 | 74 | 1005.0 |
| 20260903040013 | 16 | 180 | 8.0 | 22.5 | 0.00 | 0.05 | 0.05 | 75 | 1004.8 |
| 20260903034512 | 16 | 167 | 6.4 | 33.8 | 0.00 | 0.05 | 0.05 | 74 | 1004.2 |
| 20260903033014 | 16 | 167 | 8.0 | 27.4 | 0.00 | 0.05 | 0.05 | 73 | 1003.8 |
| 20260903031510 | 16 | 180 | 6.4 | 20.9 | 0.00 | 0.05 | 0.05 | 72 | 1003.5 |
| 20260903030011 | 17 | 175 | 9.7 | 25.7 | 0.00 | 0.05 | 0.05 | 70 | 1002.8 |
| 20260903024509 | 17 | 194 | 6.4 | 29.0 | 0.00 | 0.05 | 0.05 | 70 | 1002.4 |
| 20260903023009 | 17 | 200 | 3.2 | 24.1 | 0.00 | 0.05 | 0.05 | 71 | 1002.0 |
| 20260903021513 | 16 | 211 | 0.0 | 17.7 | 0.00 | 0.05 | 0.05 | 72 | 1002.0 |
| 20260903020008 | 16 | 195 | 3.2 | 27.4 | 0.03 | 0.05 | 0.05 | 72 | 1002.1 |
| 20260903014507 | 16 | 160 | 6.4 | 29.0 | 0.03 | 0.05 | 0.05 | 73 | 1002.1 |
| 20260903013006 | 16 | 194 | 8.0 | 22.5 | 0.05 | 0.05 | 0.05 | 75 | 1002.0 |
| 20260903011506 | 15 | 159 | 4.8 | 16.1 | 0.05 | 0.05 | 0.05 | 81 | 1002.0 |
| 20260903010004 | 15 | 193 | 3.2 | 12.9 | 0.03 | 0.03 | 0.03 | 84 | 1002.1 |
| 20260903004600 | 15 | 196 | 3.2 | 16.1 | 0.03 | 0.03 | 0.03 | 82 | 1002.5 |
| 20260903004502 | 15 | 173 | 4.8 | 16.1 | 0.03 | 0.03 | 0.03 | 81 | 1002.5 |
| 20260903003058 | 16 | 108 | 4.8 | 19.3 | 0.00 | 0.00 | 0.00 | 77 | 1002.6 |
| 20260903001557 | 16 | 154 | 8.0 | 24.1 | 0.00 | 0.00 | 0.00 | 77 | 1002.7 |
| 20260903000055 | 16 | 139 | 4.8 | 22.5 | 0.00 | 0.00 | 0.00 | 74 | 1002.9 |
| 20260902234604 | 16 | 169 | 6.4 | 25.7 | 0.00 | 0.00 | 0.00 | 74 | 1002.7 |
| 20260902233053 | 17 | 198 | 6.4 | 29.0 | 0.00 | 0.00 | 0.00 | 72 | 1002.8 |
| 20260902231555 | 17 | 152 | 6.4 | 24.1 | 0.00 | 0.00 | 0.00 | 67 | 1002.7 |
| 20260902230051 | 18 | 126 | 3.2 | 22.5 | 0.00 | 0.00 | 0.00 | 67 | 1002.7 |
| 20260902224550 | 18 | 208 | 6.4 | 24.1 | 0.00 | 0.00 | 0.00 | 66 | 1002.5 |
| 20260902223053 | 18 | 178 | 8.0 | 32.2 | 0.00 | 0.00 | 0.00 | 63 | 1002.4 |
| 20260902221550 | 18 | 156 | 8.0 | 22.5 | 0.00 | 0.00 | 0.00 | 65 | 1002.3 |
| 20260902220048 | 17 | 157 | 8.0 | 19.3 | 0.00 | 0.00 | 0.00 | 70 | 1002.5 |
| 20260902214546 | 17 | 161 | 8.0 | 19.3 | 0.00 | 0.00 | 0.00 | 72 | 1002.7 |
| 20260902213045 | 20 | 182 | 8.0 | 24.1 | 0.00 | 0.00 | 0.00 | 56 | 1002.6 |
| 20260902211544 | 20 | 217 | 1.6 | 24.1 | 0.00 | 0.00 | 0.00 | 59 | 1002.4 |
| 20260902210043 | 20 | 173 | 3.2 | 14.5 | 0.00 | 0.00 | 0.00 | 59 | 1002.7 |
| 20260902204541 | 20 | 181 | 1.6 | 11.3 | 0.00 | 0.00 | 0.00 | 59 | 1002.8 |
| 20260902203039 | 20 | 161 | 4.8 | 14.5 | 0.00 | 0.00 | 0.00 | 58 | 1002.8 |
| 20260902201547 | 20 | 192 | 3.2 | 8.0 | 0.00 | 0.00 | 0.00 | 58 | 1003.0 |
| 20260902200037 | 20 | 163 | 4.8 | 17.7 | 0.00 | 0.00 | 0.00 | 58 | 1003.2 |
| 20260902194535 | 20 | 212 | 4.8 | 19.3 | 0.00 | 0.00 | 0.00 | 58 | 1003.4 |
| 20260902193034 | 20 | 171 | 3.2 | 16.1 | 0.00 | 0.00 | 0.00 | 60 | 1003.4 |
| 20260902191535 | 20 | 186 | 4.8 | 12.9 | 0.00 | 0.00 | 0.00 | 60 | 1003.6 |
| 20260902190033 | 21 | 184 | 3.2 | 12.9 | 0.00 | 0.00 | 0.00 | 56 | 1003.6 |
| 20260902184531 | 20 | 209 | 4.8 | 17.7 | 0.00 | 0.00 | 0.00 | 55 | 1003.8 |
| 20260902183030 | 20 | 170 | 3.2 | 11.3 | 0.00 | 0.00 | 0.00 | 56 | 1003.8 |
| 20260902181531 | 20 | 79 | 6.4 | 24.1 | 0.00 | 0.00 | 0.00 | 56 | 1004.0 |
| 20260902180033 | 20 | 112 | 4.8 | 29.0 | 0.00 | 0.00 | 0.00 | 55 | 1004.1 |